Location: Godiavel Galaoual
(15.2485°N, 12.6604°W)
Time: 15:43:15
(UTC+00:00)

Hubble Space Telescope - Visible Passes

Search period start: 15 May 2021 00:00
Search period end: 25 May 2021 00:00
Orbit: 535 x 539 km, 28.5° (Epoch: 14 May)

Date Brightness Start Highest point End Pass type
(mag) Time Alt. Az. Time Alt. Az. Time Alt. Az.
15 May 3.4 04:22:57 12° SE 04:22:57 12° SE 04:23:56 10° ESE visible
16 May 3.3 04:12:43 14° ESE 04:12:43 14° ESE 04:13:51 10° ESE visible
16 May 0.8 05:48:02 11° WSW 05:52:02 83° NNW 05:56:09 10° ENE visible
17 May 3.4 04:02:26 15° ESE 04:02:26 15° ESE 04:03:27 10° E visible
17 May 1.0 05:37:45 14° WSW 05:41:08 62° NNW 05:45:12 10° ENE visible
18 May 3.6 03:52:06 14° E 03:52:06 14° E 03:52:51 10° E visible
18 May 1.4 05:27:25 18° W 05:30:14 46° NNW 05:34:12 10° NE visible
19 May 3.8 03:41:44 12° E 03:41:44 12° E 03:42:08 10° ENE visible
19 May 1.8 05:17:02 20° WNW 05:19:21 36° NNW 05:23:10 10° NE visible
20 May 4.1 03:31:19 10° ENE 03:31:19 10° ENE 03:31:19 10° ENE visible
20 May 2.2 05:06:37 20° WNW 05:08:30 29° NNW 05:12:06 10° NE visible
21 May 2.5 04:56:10 20° NW 04:57:39 24° NNW 05:01:02 10° NE visible
22 May 2.7 04:45:41 18° NW 04:46:50 20° NNW 04:49:57 10° NE visible
23 May 2.9 04:35:11 17° NNW 04:36:02 18° NNW 04:38:52 10° NNE visible
24 May 3.1 04:24:41 15° NNW 04:25:15 16° N 04:27:48 10° NNE visible
